Temperature
17 17 17 17 17 17 16 16 16 16 16 16 16 16 16 16 16 16 16 16 16 16 16 16 16 16 15 15 15 15 15 15 15 15 15 15 15 15
17 17 17 17 16 16 16 16 16 16 15 16 16 16 16 16 16 16 16 16 16 16 15 15 15 15 15 15 15 15 15 15 15 15 15 15 15 15
16 16 16 16 16 16 16 16 16 16 16 16 16 16 16 16 16 15 15 15 15 15 15 15 15 15 15 15 15 15 15 15 15 15 14 15 15 15
16 16 16 16 16 16 16 16 16 16 15 15 16 15 15 15 15 15 15 15 15 15 15 15 15 15 15 15 15 15 15 14 14 14 14 14 14 14
16 16 16 16 16 16 16 16 16 15 15 15 15 15 15 15 15 15 15 15 15 15 15 15 14 14 14 14 14 14 14 14 14 14 14 14 14 14
16 15 15 15 15 15 15 15 15 15 15 15 15 15 15 15 14 14 14 14 14 14 14 14 14 14 14 14 14 14 14 14 14 14 14 14 14 14
15 15 15 15 15 15 15 15 15 15 15 15 15 14 14 14 14 14 14 14 14 14 14 14 14 14 14 14 14 14 14 14 14 14 13 13 13 13
15 15 15 15 15 15 15 15 15 14 14 14 14 14 14 14 14 14 14 14 13 14 13 13 13 13 13 13 13 13 13 13 13 13 13 13 13 13
15 15 15 15 15 15 15 15 15 14 14 14 14 14 14 14 13 13 13 13 13 13 13 13 13 13 13 13 13 13 13 13 13 13 13 13 13 13
15 15 15 14 14 14 14 14 14 14 14 14 14 14 13 13 13 13 13 13 13 13 12 12 12 12 12 12 12 12 12 12 12 12 12 12 12 12
14 14 14 14 14 14 14 14 14 14 14 13 13 13 13 13 13 12 12 12 12 12 12 12 12 12 12 12 12 12 12 12 12 12 12 12 12 12
14 14 14 14 14 13 13 13 13 13 13 13 13 13 13 13 12 12 12 12 12 12 12 12 12 11 11 12 12 12 11 11 11 11 12 12 12 12
14 14 14 13 13 13 13 13 13 12 12 12 12 12 12 12 12 12 12 11 11 11 11 11 11 11 11 11 11 11 11 11 11 11 11 11 11 11
13 13 13 13 13 13 12 12 12 12 12 12 12 12 12 12 11 11 11 11 11 11 11 11 11 11 10 10 10 11 11 11 11 11 11 11 11 11
13 12 12 12 12 12 12 12 12 12 12 11 11 11 11 11 11 11 11 11 10 10 10 10 10 10 10 10 10 10 10 10 10 10 11 10 10 10
13 12 12 12 12 12 12 12 11 11 11 11 11 11 11 11 11 11 10 10 10 10 10 10 10 10 9 10 10 10 10 10 10 10 10 10 10 10
12 12 12 12 12 11 11 11 11 11 10 10 10 10 10 10 10 10 10 10 10 10 10 10 9 9 9 9 9 9 9 9 9 9 9 9 10 10
12 12 11 11 11 11 11 11 10 10 10 10 10 10 10 9 9 9 9 9 9 9 9 9 9 9 9 9 9 9 9 9 9 9 9 9 9 9
11 11 11 11 11 10 10 10 10 10 10 10 9 9 9 9 9 9 9 9 9 8 8 8 8 8 8 8 8 8 8 8 8 8 8 8 9 9
11 11 10 10 10 10 10 10 9 9 9 9 9 9 9 8 8 8 8 8 8 8 8 8 8 7 7 7 7 8 8 8 8 8 8 8 8 8
10 10 10 10 10 10 9 9 9 9 9 9 9 8 8 8 8 8 8 8 8 8 7 7 8 7 7 7 7 7 8 8 8 8 8 7 7 8
10 10 10 10 9 9 9 9 9 9 8 8 8 8 8 8 8 8 8 7 7 7 7 7 7 7 7 7 7 7 7 7 7 7 7 7 7 7
10 10 9 9 9 9 9 8 8 8 8 8 8 8 7 7 7 7 7 7 7 7 7 7 7 7 7 7 7 7 7 7 7 7 7 7 7 7
Wind_Speed
2 2 2 2 2 2 2 3 3 3 3 3 2 2 3 2 3 2 2 3 3 4 5 6 6 6 6 6 5 5 6 6 6 7 8 9 10 10
1 1 2 2 2 2 2 2 3 3 3 2 2 3 3 2 3 2 2 3 3 3 4 5 5 6 5 5 5 5 6 6 5 5 6 7 7 9
2 1 2 2 1 1 1 1 2 2 3 3 2 3 2 3 3 2 2 2 2 3 3 4 5 5 5 5 4 5 6 6 5 5 5 5 6 7
3 2 3 2 1 2 2 2 2 2 3 4 3 3 2 3 3 2 2 2 2 2 2 3 4 5 4 4 4 4 5 5 5 5 5 5 5 6
3 3 3 2 2 2 2 2 2 2 2 3 3 3 3 2 2 3 3 2 2 2 1 2 3 3 3 4 4 4 4 4 5 5 5 5 5 5
3 3 4 4 4 4 3 3 2 2 1 2 3 3 3 2 1 2 3 3 2 2 2 1 1 1 2 2 4 4 4 4 5 5 5 4 5 5
3 4 4 4 4 4 3 3 2 2 1 2 2 3 3 2 2 2 3 3 3 2 1 2 1 1 1 1 3 3 4 4 4 5 4 4 5 5
4 4 4 3 4 3 3 4 4 3 3 3 3 4 4 3 3 3 2 2 3 1 1 2 1 1 2 1 2 3 4 4 4 5 5 5 5 6
3 3 3 2 2 1 1 2 2 2 3 3 4 4 4 3 3 3 3 3 4 3 1 3 2 2 2 2 3 4 4 4 4 5 5 5 6 6
3 2 2 2 2 1 1 2 2 3 2 2 2 3 3 3 3 3 3 2 2 1 1 2 3 3 3 2 2 4 5 5 5 5 5 6 6 6
2 2 1 2 2 2 1 1 2 3 2 1 0 1 1 1 1 0 1 1 2 2 1 1 2 3 3 3 2 2 3 4 4 5 5 6 6 6
2 2 1 1 2 2 1 1 2 3 2 2 3 3 2 1 1 2 3 2 2 2 1 1 2 1 2 2 2 1 2 3 4 5 5 6 6 5
2 2 2 2 2 2 1 1 2 2 1 1 2 2 2 2 2 1 2 2 2 2 2 2 2 2 2 2 2 2 2 2 2 3 4 5 5 5
2 2 2 2 3 2 1 1 1 0 1 1 1 2 2 2 2 2 2 2 3 3 3 2 2 2 2 3 3 2 2 2 1 2 2 3 4 6
1 2 2 2 2 1 1 1 1 1 1 1 1 2 2 2 2 1 1 1 2 2 1 2 2 2 2 3 3 3 3 3 2 2 2 3 3 3
1 2 2 2 2 2 2 2 1 1 1 0 1 2 2 1 1 1 1 1 1 2 2 2 2 2 3 3 3 3 3 3 2 2 2 3 3 3
0 1 2 2 2 2 2 2 1 1 1 1 1 2 2 1 1 1 1 1 1 2 3 2 2 1 2 2 3 3 3 3 3 3 3 3 3 4
2 1 0 0 0 1 1 1 1 1 1 1 1 1 1 1 1 1 1 1 1 2 2 2 2 1 2 2 3 3 3 3 3 3 3 3 4 3
2 0 1 1 1 1 1 1 1 1 1 1 1 1 1 1 1 2 1 1 2 2 3 2 1 1 2 4 3 3 3 3 2 2 3 3 4 4
0 1 1 1 1 1 1 2 2 1 1 1 1 1 1 1 2 2 2 2 3 3 3 2 2 2 3 4 3 3 4 3 2 3 3 3 3 3
1 2 2 2 2 2 2 2 2 2 1 1 1 2 1 2 2 3 3 3 3 3 4 4 4 4 3 1 2 3 3 3 4 3 2 2 2 2
2 3 3 2 2 2 2 1 1 2 2 2 2 2 2 2 3 3 3 3 3 3 4 3 2 1 1 3 4 4 4 3 3 3 4 4 3 3
3 3 3 2 2 2 2 2 2 2 2 2 2 2 2 3 3 3 3 3 3 3 3 3 2 1 2 3 4 4 4 4 3 2 3 4 4 5
Wind_Direction
250 245 249 260 236 215 207 202 209 268 293 292 296 299 307 301 297 291 276 272 256 234 230 225 220 217 219 220 217 220 218 220 225 226 225 219 217 215
254 245 253 263 251 228 216 214 209 222 262 283 281 298 306 315 323 312 298 302 278 243 229 224 219 215 215 217 218 218 208 206 207 208 212 212 211 210
274 246 258 241 239 243 219 206 209 206 244 285 286 303 302 307 316 319 319 326 320 274 235 225 218 213 209 210 212 205 197 195 193 196 201 201 203 197
261 252 268 261 242 246 229 230 231 219 221 268 294 306 292 285 296 301 318 319 309 302 249 234 221 213 209 208 208 200 190 190 195 196 195 198 199 200
253 243 252 248 253 250 243 249 250 242 228 244 281 294 301 304 309 313 313 313 306 312 280 248 226 212 210 206 202 195 190 190 192 193 197 201 202 204
258 247 249 243 246 243 246 250 244 242 243 248 281 295 297 298 288 306 314 320 304 320 333 345 332 209 212 206 201 196 190 188 188 188 192 197 203 206
269 261 256 254 254 244 247 248 239 238 248 264 279 292 295 294 279 278 287 301 302 303 307 318 330 338 292 231 215 205 202 202 198 194 195 196 198 197
269 278 273 267 277 277 263 248 235 235 243 251 269 270 277 278 280 271 274 291 290 301 278 291 282 280 281 252 220 206 210 212 211 207 204 202 201 199
271 286 290 294 283 289 331 348 323 294 232 232 252 264 268 263 262 272 267 270 269 282 281 284 288 276 274 263 229 217 217 219 219 214 212 213 211 211
267 272 277 296 302 334 360 358 350 337 307 249 240 260 267 259 239 244 255 280 289 301 269 271 288 284 287 283 256 226 221 224 223 224 223 218 216 217
292 292 276 289 318 3 46 356 338 332 350 1 12 349 339 302 237 236 268 260 298 302 297 258 274 283 287 283 284 250 224 220 224 226 225 219 216 215
300 303 301 311 338 2 1 244 282 302 333 2 17 18 10 4 299 225 213 222 262 278 275 242 259 279 280 278 290 310 289 260 244 234 226 224 216 209
285 300 312 333 326 314 296 251 252 282 340 10 9 4 357 353 337 305 249 220 234 261 253 229 247 255 255 273 286 284 283 283 265 249 237 236 223 206
273 294 307 306 307 310 325 294 285 99 77 38 6 352 338 315 308 306 286 256 252 253 241 226 236 235 242 261 267 279 281 279 255 255 256 248 230 223
301 309 312 309 322 346 10 19 70 88 99 62 326 312 303 290 294 311 321 326 321 309 280 255 248 236 238 250 265 274 279 277 263 248 250 249 245 231
360 20 28 47 50 37 25 38 63 101 141 264 306 317 322 330 322 303 301 324 327 324 337 324 278 245 256 264 261 270 271 256 255 264 260 255 246 232
102 60 52 49 39 31 21 19 29 34 18 356 334 325 328 343 347 343 341 346 310 308 320 338 342 317 276 262 263 266 273 276 260 249 244 254 253 244
105 93 42 13 344 347 352 351 353 342 323 331 326 305 301 302 311 333 346 328 300 299 303 315 333 331 323 307 253 258 276 280 272 244 236 242 258 255
107 190 264 266 270 286 287 284 300 303 304 297 297 304 302 302 300 304 310 306 295 291 296 303 299 286 295 300 296 246 264 284 275 262 252 247 254 258
185 234 247 252 257 265 268 265 279 299 297 290 289 296 297 298 293 287 282 280 286 291 293 284 254 244 250 268 280 290 269 263 264 264 276 280 283 285
235 247 254 258 260 260 263 263 265 274 281 277 277 280 285 286 283 283 277 270 273 283 280 276 270 259 259 263 279 299 298 268 254 258 260 270 289 291
244 251 254 253 252 249 254 263 270 270 272 271 275 278 280 276 274 278 275 271 269 272 279 288 303 282 237 250 271 286 299 309 304 287 266 255 263 254
239 245 250 248 248 255 259 256 251 258 261 270 275 275 278 283 282 275 271 265 270 276 285 293 300 283 269 263 271 283 296 304 310 317 305 300 281 281
Height
1522 1522 1521 1521 1520 1520 1520 1520 1520 1518 1516 1516 1516 1516 1515 1515 1514 1513 1512 1512 1511 1510 1510 1510 1510 1510 1510 1510 1511 1511 1511 1512 1514 1515 1517 1519 1521 1522
1520 1519 1519 1518 1518 1517 1517 1517 1517 1516 1514 1513 1514 1513 1513 1512 1512 1511 1510 1509 1508 1508 1507 1507 1507 1507 1507 1507 1507 1507 1508 1509 1510 1512 1514 1515 1517 1519
1517 1517 1516 1516 1515 1515 1515 1514 1514 1513 1512 1511 1511 1511 1510 1510 1509 1508 1508 1507 1506 1505 1505 1504 1504 1504 1504 1504 1504 1504 1505 1506 1507 1509 1511 1512 1514 1515
1514 1514 1513 1513 1513 1512 1512 1511 1511 1510 1510 1508 1507 1507 1507 1507 1506 1506 1505 1504 1503 1503 1502 1502 1501 1501 1502 1502 1501 1502 1502 1503 1505 1506 1508 1509 1511 1512
1511 1511 1510 1510 1509 1509 1509 1508 1508 1507 1507 1506 1504 1504 1504 1504 1503 1502 1502 1501 1501 1500 1499 1499 1499 1499 1499 1499 1499 1499 1500 1501 1502 1503 1505 1506 1508 1509
1508 1508 1507 1507 1506 1506 1505 1505 1505 1504 1504 1503 1502 1501 1500 1500 1500 1499 1498 1498 1498 1498 1497 1497 1496 1496 1496 1496 1496 1496 1497 1498 1499 1500 1502 1503 1504 1506
1505 1504 1504 1503 1503 1503 1502 1502 1501 1501 1500 1500 1498 1498 1497 1497 1496 1496 1495 1495 1494 1495 1494 1494 1494 1494 1493 1494 1494 1494 1495 1495 1496 1497 1498 1500 1501 1502
1502 1501 1500 1499 1499 1499 1499 1498 1498 1498 1497 1496 1495 1494 1494 1494 1493 1493 1492 1491 1491 1492 1492 1491 1491 1491 1491 1491 1491 1492 1492 1493 1493 1494 1495 1496 1497 1498
1499 1497 1496 1496 1495 1495 1495 1495 1495 1494 1494 1494 1492 1491 1491 1491 1490 1489 1489 1489 1488 1488 1489 1488 1488 1488 1488 1488 1489 1489 1489 1490 1490 1491 1491 1492 1494 1495
1496 1495 1493 1493 1492 1492 1491 1491 1491 1491 1491 1490 1490 1489 1488 1488 1488 1487 1486 1486 1486 1486 1486 1485 1485 1485 1485 1486 1486 1486 1486 1487 1487 1487 1488 1489 1489 1491
1493 1492 1491 1490 1489 1489 1488 1487 1487 1488 1488 1487 1486 1486 1485 1485 1484 1484 1483 1483 1483 1483 1483 1483 1482 1482 1482 1482 1483 1483 1483 1483 1484 1484 1484 1485 1485 1486
1489 1488 1488 1487 1486 1486 1485 1485 1484 1484 1484 1483 1483 1482 1482 1481 1481 1480 1480 1480 1480 1480 1479 1480 1479 1479 1479 1479 1479 1479 1480 1480 1480 1480 1481 1481 1481 1482
1486 1485 1484 1484 1484 1483 1483 1482 1482 1481 1481 1480 1479 1479 1479 1478 1478 1478 1477 1478 1477 1476 1477 1477 1476 1476 1476 1475 1476 1476 1476 1476 1476 1476 1476 1477 1477 1478
1483 1483 1482 1482 1481 1480 1480 1480 1479 1479 1478 1478 1477 1476 1475 1475 1475 1475 1475 1475 1475 1474 1474 1474 1473 1473 1472 1472 1471 1471 1472 1472 1472 1472 1472 1473 1473 1473
1481 1481 1480 1479 1479 1479 1478 1478 1477 1476 1476 1475 1474 1474 1473 1473 1472 1472 1472 1472 1472 1471 1471 1470 1470 1469 1469 1468 1467 1467 1467 1467 1468 1468 1468 1469 1469 1469
1479 1478 1478 1477 1477 1477 1476 1476 1475 1474 1474 1473 1472 1472 1471 1470 1470 1469 1468 1468 1468 1467 1467 1467 1466 1466 1465 1465 1464 1463 1463 1463 1463 1463 1464 1464 1465 1465
1476 1476 1475 1475 1475 1474 1474 1474 1473 1472 1471 1471 1470 1469 1469 1468 1467 1467 1466 1465 1464 1464 1463 1463 1463 1462 1462 1461 1460 1460 1459 1459 1459 1459 1459 1459 1461 1461
1474 1473 1473 1472 1472 1472 1472 1471 1471 1470 1470 1469 1468 1468 1467 1466 1465 1464 1464 1463 1462 1461 1460 1460 1459 1458 1458 1457 1458 1456 1456 1455 1454 1455 1455 1455 1456 1457
1471 1471 1471 1471 1470 1470 1469 1469 1469 1469 1468 1467 1466 1466 1465 1464 1463 1462 1461 1460 1459 1459 1458 1457 1456 1455 1455 1454 1454 1454 1453 1451 1451 1451 1451 1452 1452 1453
1470 1469 1469 1469 1468 1468 1467 1467 1466 1466 1466 1465 1464 1463 1462 1461 1461 1460 1459 1458 1457 1456 1455 1454 1454 1453 1452 1452 1451 1451 1450 1449 1448 1448 1448 1448 1448 1449
1468 1467 1467 1467 1466 1466 1465 1465 1464 1463 1463 1462 1461 1461 1460 1459 1458 1457 1456 1455 1454 1453 1452 1451 1451 1451 1450 1449 1448 1447 1447 1447 1446 1446 1445 1445 1444 1444
1466 1465 1465 1465 1465 1464 1463 1462 1461 1461 1460 1459 1459 1458 1457 1456 1455 1454 1453 1452 1451 1451 1449 1449 1448 1447 1446 1445 1445 1444 1444 1443 1443 1443 1443 1443 1441 1440
1463 1463 1462 1462 1462 1461 1461 1460 1459 1458 1457 1456 1456 1455 1454 1453 1452 1451 1450 1449 1448 1448 1446 1445 1445 1444 1443 1442 1442 1441 1440 1440 1439 1439 1439 1439 1439 1438